Tracking 35331 objects as of 15-Sep-2026
HD Live streaming from Space Station
objects crossing your sky now

STARLINK-3930

Track STARLINK-3930 now!
10-day predictions
STARLINK-3930 is classified as:


NORAD ID: 52568
Int'l Code: 2022-051AM
Launch date: May 13, 2022
Source: United States (US)
Launch site: AIR FORCE WESTERN TEST RANGE (AFWTR)
Your satellite tracking list
Your tracking list is empty




NASA's NSSDC Master Catalog

Two Line Element Set (TLE):
1 52568U 22051AM  26257.91250370  .00000724  00000-0  32567-4 0  9995
2 52568  53.1616 334.0077 0001184  75.9930 284.1205 15.34391480240366
Source of the keplerian elements: AFSPC